Wind_Speed
10 11 12 11 11 12 12 12 14 16 15 16 16 20 14 8 7 11 9 8 9 9 12 8 9 9 10 10 10 9 9 10 12 16 10 8 10 8 5 7 10 10 11
6 6 5 4 4 5 4 6 7 7 10 9 10 9 8 9 11 11 10 8 9 11 8 6 10 11 11 11 11 10 12 11 12 13 12 9 7 5 5 5 7 10 11
6 6 7 7 7 6 8 8 8 8 8 7 6 6 6 6 6 5 5 5 7 6 5 9 11 11 13 12 13 15 15 13 12 10 10 7 6 5 4 6 5 6 7
11 12 12 12 12 11 11 11 11 11 13 13 10 8 7 7 7 6 6 6 8 8 10 11 12 13 14 13 13 14 15 15 15 11 8 7 6 8 5 7 7 4 5
15 15 14 13 12 12 12 12 12 13 14 13 12 13 10 12 12 10 8 9 9 7 8 10 11 11 12 13 15 14 13 12 12 11 7 3 1 3 8 9 8 6 4
16 15 15 14 14 14 14 13 15 17 17 17 16 16 17 16 15 12 7 8 11 13 14 13 12 11 12 11 11 11 14 13 12 6 1 9 8 9 13 14 15 10 5
16 16 15 14 15 15 15 17 18 19 20 21 20 20 23 20 20 19 18 19 21 22 23 22 18 17 14 10 6 2 3 2 7 10 13 13 10 4 3 6 6 4 6
16 15 13 14 16 15 16 17 17 17 18 19 19 19 20 21 20 20 21 19 21 22 25 24 24 23 21 17 18 20 19 19 15 13 9 6 3 6 8 9 5 4 5
15 14 13 13 14 14 15 15 14 16 17 18 19 20 21 23 23 20 17 16 16 18 18 21 21 22 18 11 10 10 10 9 4 1 4 6 5 10 14 13 12 8 4
14 14 14 14 13 14 13 14 14 16 16 16 17 18 20 19 21 21 18 16 17 16 16 17 23 21 21 20 18 14 13 11 9 6 10 8 6 4 2 6 10 10 8
15 16 16 15 14 14 14 12 13 13 13 13 13 12 13 14 14 16 16 13 12 12 13 14 15 17 15 14 13 11 9 7 7 5 3 2 3 4 2 1 3 6 7
16 17 15 14 13 13 13 11 10 9 10 10 11 13 13 13 17 16 16 16 14 13 15 15 15 17 18 18 16 14 13 10 6 6 6 5 6 7 8 6 4 4 5
16 15 14 13 11 10 9 9 9 10 11 12 13 14 14 13 16 20 19 19 20 18 14 15 18 18 18 17 19 18 16 15 13 12 12 12 12 10 7 6 8 7 4
16 14 13 11 10 9 9 9 10 11 12 13 13 12 12 12 12 13 13 14 16 15 15 15 15 16 17 16 16 16 15 14 13 12 10 8 7 8 9 8 8 8 6
16 14 12 11 9 9 11 9 9 11 11 11 11 11 11 11 10 13 14 12 12 13 12 13 15 15 15 15 15 14 13 12 12 10 10 10 9 9 8 9 8 6 5
16 13 11 9 9 9 11 10 10 10 11 11 11 10 11 11 8 9 9 9 10 9 9 9 10 10 11 12 13 13 12 12 11 9 8 7 9 10 11 10 9 10 10
15 14 13 10 10 11 11 10 9 7 7 5 4 5 6 6 4 5 7 8 8 7 8 8 9 10 11 12 13 14 15 14 13 12 12 14 14 13 11 13 13 11 13
14 15 12 11 11 11 11 10 7 6 4 3 3 2 1 2 3 6 8 10 8 9 9 10 11 11 11 13 15 16 17 17 16 15 14 13 12 12 13 12 12 12 13
15 14 12 11 11 11 11 10 8 7 4 3 3 3 2 3 5 7 8 6 9 10 11 11 10 11 13 16 17 15 13 12 12 13 13 13 13 13 13 13 13 13 14
16 15 15 13 12 13 10 10 9 9 7 5 5 2 2 5 5 6 6 5 7 9 9 9 10 12 15 15 13 11 11 12 13 15 15 15 15 15 16 16 16 17 17
16 15 16 13 12 11 10 10 9 10 10 7 5 4 3 6 5 5 4 4 6 9 8 9 11 14 15 13 10 11 12 14 15 15 14 13 15 17 17 17 16 16 16
15 16 16 14 12 11 10 9 8 9 10 8 6 5 8 5 2 1 2 4 5 6 7 9 13 14 13 10 9 11 13 15 15 14 13 15 16 17 18 17 15 14 14
15 16 14 13 12 13 12 10 9 10 9 8 6 5 3 2 1 1 3 5 6 7 8 11 13 14 12 10 9 10 13 14 14 13 14 18 20 18 19 18 17 15 14
16 15 15 13 13 13 13 11 10 10 8 4 4 4 4 4 3 3 5 5 5 7 9 11 12 13 11 9 10 12 13 14 14 13 17 20 22 21 20 19 17 17 17
19 18 17 16 16 14 13 12 11 9 7 5 3 3 4 5 5 4 4 4 6 8 10 10 11 12 10 10 11 12 14 16 15 15 18 20 23 19 18 17 17 17 16
18 18 17 15 15 15 14 14 11 8 7 6 3 4 6 6 6 5 3 3 6 9 10 10 10 11 10 10 10 15 16 16 17 18 20 22 19 18 18 18 17 16 15
Wind_Direction
226 227 234 245 252 259 265 274 276 280 284 284 278 277 279 275 281 295 295 300 291 285 288 287 286 282 274 274 266 256 254 248 266 285 287 290 298 295 279 232 223 214 228
204 215 229 252 260 270 293 312 316 307 306 308 306 300 288 291 299 291 288 281 276 287 284 290 305 304 289 275 268 262 261 252 255 264 280 279 272 268 250 252 234 234 231
130 119 97 83 77 57 50 38 35 33 33 25 19 21 23 24 26 9 347 295 300 285 288 306 314 305 290 278 275 275 272 267 255 245 264 280 276 281 266 255 252 246 259
101 94 85 76 73 70 65 61 57 58 60 56 54 50 38 20 1 339 335 339 332 313 309 308 308 303 297 293 286 275 270 265 264 256 262 270 281 292 309 305 277 292 268
97 91 84 83 80 76 70 65 64 61 62 63 61 56 47 27 11 356 352 338 336 345 343 339 326 314 305 294 272 273 277 274 252 236 231 238 359 28 29 355 337 338 324
98 94 95 85 77 71 68 67 70 71 71 68 61 58 56 44 41 41 44 38 34 27 10 358 352 347 318 311 305 282 259 258 252 246 110 120 93 68 70 52 16 350 348
98 93 88 85 81 77 77 77 75 74 71 68 63 60 54 50 52 58 63 63 61 56 48 47 39 31 32 31 39 359 63 336 254 233 145 129 112 117 120 105 123 64 349
98 96 94 92 87 81 78 71 68 62 58 59 57 57 61 54 57 63 65 63 62 57 55 54 56 52 55 68 79 85 88 81 90 112 123 141 220 229 227 231 238 249 272
97 99 99 97 94 91 82 75 69 68 63 60 58 58 55 50 50 55 60 62 56 52 53 52 47 47 45 55 68 83 78 71 58 318 295 279 261 236 238 255 251 245 274
108 108 109 106 98 93 87 81 83 80 81 78 73 66 63 58 57 56 57 56 57 54 50 46 47 47 48 52 56 56 52 44 52 88 98 112 98 98 221 259 266 241 240
117 112 107 104 103 102 98 91 93 94 90 81 75 66 60 58 49 54 57 53 53 49 41 33 25 28 32 34 43 37 33 25 26 36 54 70 350 344 324 301 260 257 240
124 119 115 111 108 108 106 103 97 93 83 74 74 68 61 57 55 54 55 56 59 53 42 36 34 44 47 45 41 37 34 32 9 360 354 346 335 333 326 306 289 279 280
133 129 124 120 116 112 107 102 91 81 77 75 74 73 67 59 59 62 60 61 61 60 56 54 53 51 45 39 44 46 39 35 35 40 39 36 34 27 9 1 19 27 44
147 143 138 135 128 117 108 100 89 83 83 81 77 69 65 60 61 56 51 51 52 50 47 40 45 47 45 44 42 38 36 36 33 29 27 29 29 31 31 30 33 27 18
147 146 142 140 136 129 126 115 101 96 97 93 86 75 64 69 60 58 56 54 47 46 48 43 44 41 35 33 30 29 29 26 24 20 18 17 15 6 13 13 6 351 337
153 154 154 150 147 146 141 127 118 114 107 100 89 85 71 74 74 59 46 39 36 33 32 24 20 11 6 359 356 356 0 0 357 353 357 353 351 348 346 340 337 335 332
169 166 164 160 163 166 164 158 147 141 125 116 105 80 67 71 58 23 8 357 350 352 352 353 351 352 352 352 352 351 346 340 327 325 327 324 320 319 313 318 318 315 323
178 180 172 170 174 178 178 175 166 159 147 146 157 160 84 330 319 310 318 333 341 347 348 347 347 354 1 357 351 344 339 336 336 334 331 331 328 318 315 319 317 328 324
186 184 188 188 189 185 183 185 185 179 174 154 151 164 216 287 312 322 332 344 350 3 3 3 8 1 354 345 341 340 344 355 1 0 357 353 347 340 333 330 322 321 319
195 190 181 188 191 190 190 194 196 196 188 179 172 190 300 324 348 3 12 31 32 19 9 355 353 348 344 344 347 354 354 354 352 347 342 338 335 330 323 318 314 310 307
187 186 179 179 186 191 196 199 200 198 195 186 190 226 307 337 349 12 47 44 17 2 353 347 345 340 341 341 344 347 346 344 343 341 341 345 342 334 327 317 310 308 307
183 178 177 178 180 179 180 174 175 183 191 196 216 251 279 288 338 53 23 353 346 343 343 341 338 337 337 339 340 342 341 339 338 336 335 336 336 333 330 324 318 312 310
180 175 172 167 171 171 162 168 175 173 183 210 230 254 273 269 274 282 324 328 328 337 336 338 338 338 334 333 335 338 337 336 331 327 325 326 330 327 323 318 314 309 306
178 173 171 171 167 173 169 170 175 174 177 214 220 241 260 273 261 285 297 306 326 331 334 337 337 337 333 332 331 331 330 325 323 319 319 324 325 326 319 316 311 306 301
179 176 174 173 171 179 171 170 176 183 190 211 235 239 255 251 246 273 288 309 331 333 334 334 334 334 332 328 329 330 326 332 328 320 320 320 320 320 318 317 314 307 300
179 176 174 177 180 183 179 174 181 194 207 195 193 240 250 256 258 269 297 315 329 330 325 324 325 330 331 334 329 336 338 336 331 326 322 321 321 319 319 318 317 311 306
Height
809 812 814 816 818 819 821 822 822 820 820 819 818 817 817 818 817 817 817 816 816 817 816 814 815 813 812 812 811 810 811 812 810 807 808 807 805 804 804 804 806 807 809
807 808 811 814 816 818 819 818 818 817 815 815 814 814 814 815 815 815 814 813 813 813 812 812 811 810 809 809 808 806 807 808 808 807 807 806 804 804 803 803 806 806 807
806 808 811 813 815 816 817 816 815 814 814 813 812 812 813 813 813 813 812 811 810 809 809 809 808 807 806 805 803 803 804 805 806 805 805 805 805 805 803 803 804 804 805
807 809 812 814 815 816 816 817 816 815 814 814 813 814 814 813 813 812 811 811 809 808 807 806 804 803 803 801 800 799 799 800 803 805 805 805 805 805 804 805 803 803 803
810 813 815 816 817 817 817 817 817 816 816 816 815 815 814 814 812 810 809 809 807 806 804 803 802 800 798 797 796 796 797 797 799 799 799 803 804 805 805 809 808 805 804
813 815 816 817 818 819 820 820 820 820 819 818 818 817 816 815 813 810 809 808 807 806 805 803 801 799 797 795 793 792 793 794 795 796 798 798 802 806 802 804 813 809 805
815 817 819 820 821 822 823 823 823 822 821 821 821 821 819 818 816 814 812 811 810 809 807 804 803 801 797 794 792 791 791 792 792 792 797 797 798 802 806 806 807 809 809
818 820 823 824 825 826 826 826 827 827 827 827 828 827 826 825 822 819 817 818 816 815 812 810 807 805 802 800 799 798 798 798 797 797 799 799 801 802 803 806 807 807 807
822 824 826 828 828 830 831 832 833 833 833 832 832 831 830 828 826 824 822 821 820 818 816 815 812 810 808 805 804 804 803 803 803 803 802 802 802 804 807 805 806 806 805
825 827 828 830 833 834 835 836 836 837 837 837 836 836 834 833 831 828 826 826 825 824 823 821 819 816 814 811 809 808 807 807 805 805 805 805 805 805 804 804 804 802 803
828 830 832 835 837 838 839 840 839 839 840 840 840 840 839 837 836 833 831 830 829 828 828 826 824 821 818 816 814 813 811 810 809 808 807 807 806 806 805 804 803 802 801
831 833 836 838 840 841 841 842 842 843 843 844 843 843 842 841 839 838 836 833 832 831 831 830 827 824 822 818 817 814 812 810 809 808 807 806 806 805 804 803 802 800 800
832 834 838 840 841 842 844 845 846 846 846 846 847 847 846 844 844 842 840 838 836 834 834 832 830 827 826 823 820 818 815 813 812 811 811 809 807 805 803 802 801 799 798
833 835 837 840 842 844 846 848 849 849 849 849 849 849 849 848 846 843 844 843 841 839 837 836 833 831 829 828 825 822 820 818 816 814 813 812 810 809 807 805 803 802 801
833 836 839 841 844 845 847 849 851 850 850 850 850 850 851 850 850 848 846 845 844 842 840 839 836 834 833 830 828 826 823 821 819 817 815 813 811 809 807 806 804 802 800
833 836 840 843 845 847 848 850 851 852 852 852 851 852 850 851 850 849 849 848 846 844 843 841 839 837 834 833 830 828 825 823 821 819 816 814 811 809 807 804 804 802 800
833 835 837 841 844 846 848 850 851 852 852 853 853 852 853 852 851 850 850 848 847 846 845 842 841 839 836 834 832 830 827 825 822 819 817 814 810 808 806 803 801 800 798
832 835 837 839 842 845 846 848 849 852 852 852 852 852 852 853 851 850 849 848 847 845 845 844 842 839 837 835 833 830 827 825 822 819 816 813 811 809 806 803 800 800 798
828 831 836 840 842 843 845 847 849 850 851 852 852 852 850 850 849 848 847 848 848 846 845 845 843 841 838 836 833 831 828 826 824 821 817 815 813 810 807 805 803 801 798
825 828 830 835 838 839 843 845 847 848 849 850 851 852 851 850 849 848 847 847 847 846 845 845 844 842 840 837 834 832 829 827 824 822 819 816 813 810 807 804 800 797 795
822 824 826 830 833 836 839 841 843 845 847 848 850 851 851 850 849 848 849 848 847 846 846 845 843 842 840 837 835 832 829 827 825 822 819 816 813 809 806 802 798 795 792
820 822 824 825 828 832 835 838 840 842 845 846 848 849 848 849 849 849 848 848 847 846 846 845 843 841 839 836 833 831 829 827 825 822 819 816 812 809 805 800 796 793 790
818 821 823 825 828 830 833 836 837 838 842 845 845 846 847 847 847 847 848 847 846 846 845 844 843 840 838 835 833 831 829 826 824 821 818 813 809 806 803 798 794 790 788
816 820 823 825 828 832 833 835 837 837 839 842 843 844 845 847 847 847 847 846 845 845 844 842 841 839 836 834 831 829 827 824 821 819 814 811 807 804 800 795 791 788 785
813 816 820 823 825 830 832 833 836 837 838 840 841 842 843 844 843 843 845 845 844 843 842 841 839 837 835 832 829 827 823 820 817 815 811 808 804 801 797 792 788 785 782
811 815 818 822 824 828 829 829 833 835 836 837 838 839 840 841 841 841 841 841 841 842 841 839 838 835 832 829 827 823 820 817 814 811 808 804 800 798 794 789 786 783 780